Location: Palomar Mountain Lodge
(33.3110°N, 116.8495°W)
Time: 11:44:51
(UTC-08:00)

OAO 2 Rocket - Pass Details

Date: 19 May 2017
Orbit: 676 x 747 km, 35.0° (Epoch: 16 December)

Event Time Altitude Azimuth Distance (km) Brightness Sun altitude
Rises 20:16:51 0° 219° (SW) 3,008 6.7 -7.0°
Reaches altitude 10° 20:19:30 10° 208° (SSW) 2,102 5.8 -7.5°
Maximum altitude 20:23:37 27° 150° (SSE) 1,291 4.2 -8.2°
Drops below altitude 10° 20:27:50 10° 93° (E) 2,138 5.3 -9.0°
Enters shadow 20:28:40 - 88° (E) 2,413 5.6 -9.1°
